Time,TemperatureF,DewpointF,PressureIn,WindDirection,WindDirectionDegrees,WindSpeedMPH,WindSpeedGustMPH,Humidity,HourlyPrecipIn,Conditions,Clouds,dailyrainin,SoftwareType,DateUTC
2013-04-09 00:01:00,70.2,68.0,29.93,ESE,105,2.0,-999.0,91,-99.99,,,0.01,weatherlink.com 1.10,2013-04-09 05:01:00,
2013-04-09 00:16:00,70.3,68.0,29.76,SE,137,4.0,-999.0,91,-99.99,,,0.00,weatherlink.com 1.10,2013-04-09 05:16:00,
2013-04-09 00:32:00,70.5,68.0,30.09,SE,126,6.0,-999.0,91,-99.99,,,0.00,weatherlink.com 1.10,2013-04-09 05:32:00,
2013-04-09 00:47:00,70.5,68.0,29.83,ESE,105,4.0,-999.0,90,-99.99,,,0.00,weatherlink.com 1.10,2013-04-09 05:47:00,
2013-04-09 01:02:00,70.6,68.0,30.07,ESE,119,8.0,-999.0,90,-99.99,,,0.00,weatherlink.com 1.10,2013-04-09 06:02:00,
2013-04-09 01:17:00,70.8,68.0,30.06,ESE,111,12.0,-999.0,90,-99.99,,,0.00,weatherlink.com 1.10,2013-04-09 06:17:00,
2013-04-09 01:32:00,70.7,68.0,30.06,ESE,120,3.0,-999.0,90,-99.99,,,0.00,weatherlink.com 1.10,2013-04-09 06:32:00,
2013-04-09 01:47:00,70.7,68.0,30.06,SE,140,9.0,-999.0,90,-99.99,,,0.00,weatherlink.com 1.10,2013-04-09 06:47:00,
2013-04-09 02:02:00,70.6,68.0,30.05,SSE,148,9.0,-999.0,90,-99.99,,,0.00,weatherlink.com 1.10,2013-04-09 07:02:00,
2013-04-09 02:17:00,70.4,67.0,30.05,SE,131,9.0,-999.0,90,-99.99,,,0.00,weatherlink.com 1.10,2013-04-09 07:17:00,
2013-04-09 02:32:00,70.3,67.0,30.04,SSE,152,10.0,-999.0,90,-99.99,,,0.00,weatherlink.com 1.10,2013-04-09 07:32:00,
2013-04-09 02:47:00,70.1,67.0,30.04,ESE,118,2.0,-999.0,90,-99.99,,,0.00,weatherlink.com 1.10,2013-04-09 07:47:00,
2013-04-09 03:02:00,70.1,67.0,30.04,ESE,123,3.0,-999.0,91,-99.99,,,0.00,weatherlink.com 1.10,2013-04-09 08:02:00,
2013-04-09 03:17:00,69.9,67.0,30.05,ESE,121,3.0,-999.0,91,-99.99,,,0.00,weatherlink.com 1.10,2013-04-09 08:17:00,
2013-04-09 03:32:00,69.7,67.0,30.04,SE,127,1.0,-999.0,91,-99.99,,,0.00,weatherlink.com 1.10,2013-04-09 08:32:00,
2013-04-09 03:47:00,69.6,67.0,29.88,ESE,111,2.0,-999.0,91,-99.99,,,0.00,weatherlink.com 1.10,2013-04-09 08:47:00,
2013-04-09 04:02:00,69.6,67.0,30.04,ESE,117,3.0,-999.0,91,-99.99,,,0.00,weatherlink.com 1.10,2013-04-09 09:02:00,
2013-04-09 04:17:00,69.5,67.0,30.04,SE,138,1.0,-999.0,91,-99.99,,,0.00,weatherlink.com 1.10,2013-04-09 09:17:00,
2013-04-09 04:32:00,69.4,67.0,30.04,SE,138,4.0,-999.0,91,-99.99,,,0.00,weatherlink.com 1.10,2013-04-09 09:32:00,
2013-04-09 04:47:00,69.5,67.0,30.04,SE,128,3.0,-999.0,91,-99.99,,,0.00,weatherlink.com 1.10,2013-04-09 09:47:00,
2013-04-09 05:02:00,69.5,67.0,30.05,ESE,112,3.0,-999.0,91,-99.99,,,0.00,weatherlink.com 1.10,2013-04-09 10:02:00,
2013-04-09 05:17:00,69.5,67.0,30.05,ESE,123,4.0,-999.0,91,-99.99,,,0.00,weatherlink.com 1.10,2013-04-09 10:17:00,
2013-04-09 05:32:00,69.5,67.0,29.89,ESE,113,1.0,-999.0,91,-99.99,,,0.00,weatherlink.com 1.10,2013-04-09 10:32:00,
2013-04-09 05:47:00,69.6,67.0,30.06,ESE,110,0.0,-999.0,91,-99.99,,,0.00,weatherlink.com 1.10,2013-04-09 10:47:00,
2013-04-09 06:02:00,69.5,67.0,30.06,ESE,118,0.0,-999.0,91,-99.99,,,0.00,weatherlink.com 1.10,2013-04-09 11:02:00,
2013-04-09 06:17:00,69.4,67.0,30.07,ESE,107,2.0,-999.0,91,-99.99,,,0.00,weatherlink.com 1.10,2013-04-09 11:17:00,
2013-04-09 06:32:00,69.4,67.0,30.07,ESE,119,0.0,-999.0,92,-99.99,,,0.00,weatherlink.com 1.10,2013-04-09 11:32:00,
2013-04-09 06:47:00,69.3,67.0,29.99,East,97,2.0,-999.0,92,-99.99,,,0.00,weatherlink.com 1.10,2013-04-09 11:47:00,
2013-04-09 07:02:00,69.2,67.0,30.08,East,90,1.0,-999.0,92,-99.99,,,0.00,weatherlink.com 1.10,2013-04-09 12:02:00,
2013-04-09 07:17:00,69.3,67.0,30.00,ESE,119,1.0,-999.0,92,-99.99,,,0.00,weatherlink.com 1.10,2013-04-09 12:17:00,
2013-04-09 07:32:00,69.7,67.0,30.00,ESE,106,1.0,-999.0,92,-99.99,,,0.00,weatherlink.com 1.10,2013-04-09 12:32:00,
2013-04-09 07:47:00,70.4,68.0,30.09,SE,135,2.0,-999.0,91,-99.99,,,0.00,weatherlink.com 1.10,2013-04-09 12:47:00,
2013-04-09 08:02:00,71.3,69.0,30.09,SE,125,3.0,-999.0,91,-99.99,,,0.00,weatherlink.com 1.10,2013-04-09 13:02:00,
2013-04-09 08:17:00,72.5,69.0,30.09,SE,130,9.0,-999.0,89,-99.99,,,0.00,weatherlink.com 1.10,2013-04-09 13:17:00,
2013-04-09 08:47:00,73.9,70.0,29.59,SE,126,4.0,-999.0,86,-99.99,,,0.00,weatherlink.com 1.10,2013-04-09 13:47:00,
2013-04-09 09:02:00,74.5,70.0,30.02,ESE,102,6.0,-999.0,85,-99.99,,,0.00,weatherlink.com 1.10,2013-04-09 14:02:00,
2013-04-09 09:17:00,75.1,70.0,30.11,South,180,11.0,-999.0,83,-99.99,,,0.00,weatherlink.com 1.10,2013-04-09 14:17:00,
2013-04-09 09:32:00,75.7,70.0,29.45,SE,143,9.0,-999.0,82,-99.99,,,0.00,weatherlink.com 1.10,2013-04-09 14:32:00,
2013-04-09 09:47:00,76.1,70.0,29.45,SE,132,3.0,-999.0,81,-99.99,,,0.00,weatherlink.com 1.10,2013-04-09 14:47:00,
2013-04-09 10:02:00,75.2,69.0,29.71,ESE,119,10.0,-999.0,81,-99.99,,,0.00,weatherlink.com 1.10,2013-04-09 15:02:00,
2013-04-09 10:17:00,75.9,70.0,30.11,East,98,5.0,-999.0,81,-99.99,,,0.00,weatherlink.com 1.10,2013-04-09 15:17:00,
2013-04-09 10:32:00,77.1,70.0,29.74,SE,136,13.0,-999.0,78,-99.99,,,0.00,weatherlink.com 1.10,2013-04-09 15:32:00,
2013-04-09 10:47:00,77.4,69.0,29.74,SE,128,17.0,-999.0,76,-99.99,,,0.00,weatherlink.com 1.10,2013-04-09 15:47:00,
2013-04-09 11:03:00,77.8,69.0,29.36,SE,145,5.0,-999.0,74,-99.99,,,0.00,weatherlink.com 1.10,2013-04-09 16:03:00,
2013-04-09 11:18:00,78.6,70.0,29.19,East,101,6.0,-999.0,74,-99.99,,,0.00,weatherlink.com 1.10,2013-04-09 16:18:00,
2013-04-09 11:33:00,78.6,69.0,29.19,SSE,167,14.0,-999.0,73,-99.99,,,0.00,weatherlink.com 1.10,2013-04-09 16:33:00,
2013-04-09 11:48:00,78.8,69.0,29.98,SE,139,14.0,-999.0,72,-99.99,,,0.00,weatherlink.com 1.10,2013-04-09 16:48:00,
2013-04-09 12:03:00,78.6,69.0,29.98,South,175,6.0,-999.0,73,-99.99,,,0.00,weatherlink.com 1.10,2013-04-09 17:03:00,
2013-04-09 12:18:00,78.5,69.0,29.98,SE,126,5.0,-999.0,73,-99.99,,,0.00,weatherlink.com 1.10,2013-04-09 17:18:00,
2013-04-09 12:33:00,78.4,70.0,29.98,East,84,5.0,-999.0,75,-99.99,,,0.00,weatherlink.com 1.10,2013-04-09 17:33:00,
2013-04-09 12:48:00,77.8,69.0,29.01,SE,128,3.0,-999.0,75,-99.99,,,0.00,weatherlink.com 1.10,2013-04-09 17:48:00,
2013-04-09 13:03:00,78.4,70.0,29.01,East,96,3.0,-999.0,75,-99.99,,,0.00,weatherlink.com 1.10,2013-04-09 18:03:00,
2013-04-09 13:18:00,78.2,70.0,29.73,SSE,153,6.0,-999.0,75,-99.99,,,0.00,weatherlink.com 1.10,2013-04-09 18:18:00,
2013-04-09 13:33:00,78.2,70.0,29.48,SSE,156,13.0,-999.0,75,-99.99,,,0.00,weatherlink.com 1.10,2013-04-09 18:33:00,
2013-04-09 13:48:00,77.6,69.0,28.89,SE,142,11.0,-999.0,75,-99.99,,,0.00,weatherlink.com 1.10,2013-04-09 18:48:00,
2013-04-09 14:18:00,78.1,70.0,29.72,SE,145,8.0,-999.0,75,-99.99,,,0.00,weatherlink.com 1.10,2013-04-09 19:18:00,
2013-04-09 14:33:00,77.4,69.0,29.72,South,182,11.0,-999.0,76,-99.99,,,0.00,weatherlink.com 1.10,2013-04-09 19:33:00,
2013-04-09 14:48:00,77.5,69.0,29.10,SSE,147,9.0,-999.0,76,-99.99,,,0.00,weatherlink.com 1.10,2013-04-09 19:48:00,
2013-04-09 15:03:00,78.5,70.0,29.45,SSE,161,11.0,-999.0,75,-99.99,,,0.00,weatherlink.com 1.10,2013-04-09 20:03:00,
2013-04-09 15:18:00,78.1,70.0,26.71,SE,124,13.0,-999.0,75,-99.99,,,0.00,weatherlink.com 1.10,2013-04-09 20:18:00,
2013-04-09 15:33:00,77.8,69.0,26.71,SE,130,8.0,-999.0,75,-99.99,,,0.00,weatherlink.com 1.10,2013-04-09 20:33:00,
2013-04-09 15:48:00,78.5,70.0,26.71,SE,135,11.0,-999.0,74,-99.99,,,0.00,weatherlink.com 1.10,2013-04-09 20:48:00,
2013-04-09 16:03:00,79.7,70.0,26.71,East,90,6.0,-999.0,71,-99.99,,,0.00,weatherlink.com 1.10,2013-04-09 21:03:00,
2013-04-09 16:18:00,79.4,70.0,26.33,SE,140,3.0,-999.0,72,-99.99,,,0.00,weatherlink.com 1.10,2013-04-09 21:18:00,
2013-04-09 16:33:00,78.7,69.0,26.33,ESE,117,3.0,-999.0,72,-99.99,,,0.00,weatherlink.com 1.10,2013-04-09 21:33:00,
2013-04-09 16:49:00,78.8,69.0,26.33,East,101,3.0,-999.0,72,-99.99,,,0.00,weatherlink.com 1.10,2013-04-09 21:49:00,
2013-04-09 17:03:00,77.8,69.0,25.12,ESE,114,7.0,-999.0,74,-99.99,,,0.00,weatherlink.com 1.10,2013-04-09 22:03:00,
2013-04-09 17:18:00,77.0,69.0,25.76,South,182,6.0,-999.0,75,-99.99,,,0.00,weatherlink.com 1.10,2013-04-09 22:18:00,
2013-04-09 17:33:00,76.5,68.0,25.76,East,84,3.0,-999.0,76,-99.99,,,0.00,weatherlink.com 1.10,2013-04-09 22:33:00,
2013-04-09 17:48:00,76.1,69.0,25.76,SSE,155,14.0,-999.0,78,-99.99,,,0.00,weatherlink.com 1.10,2013-04-09 22:48:00,
2013-04-09 18:03:00,75.8,69.0,25.76,SE,127,6.0,-999.0,79,-99.99,,,0.00,weatherlink.com 1.10,2013-04-09 23:03:00,
2013-04-09 18:33:00,75.0,69.0,25.76,East,86,4.0,-999.0,82,-99.99,,,0.00,weatherlink.com 1.10,2013-04-09 23:33:00,
2013-04-09 18:48:00,74.5,69.0,25.76,ESE,103,2.0,-999.0,83,-99.99,,,0.00,weatherlink.com 1.10,2013-04-09 23:48:00,
2013-04-09 19:03:00,74.0,69.0,25.34,East,96,4.0,-999.0,84,-99.99,,,0.00,weatherlink.com 1.10,2013-04-10 00:03:00,
2013-04-09 19:18:00,73.4,69.0,25.34,ESE,102,1.0,-999.0,85,-99.99,,,0.00,weatherlink.com 1.10,2013-04-10 00:18:00,
2013-04-09 19:33:00,73.1,69.0,25.34,ESE,113,4.0,-999.0,86,-99.99,,,0.00,weatherlink.com 1.10,2013-04-10 00:33:00,
2013-04-09 19:48:00,72.7,69.0,25.34,SE,136,4.0,-999.0,87,-99.99,,,0.00,weatherlink.com 1.10,2013-04-10 00:48:00,
2013-04-09 20:03:00,72.3,68.0,25.34,East,100,2.0,-999.0,87,-99.99,,,0.00,weatherlink.com 1.10,2013-04-10 01:03:00,
2013-04-09 20:18:00,71.9,68.0,25.34,East,82,5.0,-999.0,87,-99.99,,,0.00,weatherlink.com 1.10,2013-04-10 01:18:00,
2013-04-09 20:33:00,71.6,68.0,25.34,East,84,4.0,-999.0,87,-99.99,,,0.00,weatherlink.com 1.10,2013-04-10 01:33:00,
2013-04-09 20:48:00,71.2,68.0,25.34,East,98,1.0,-999.0,88,-99.99,,,0.00,weatherlink.com 1.10,2013-04-10 01:48:00,
2013-04-09 21:03:00,70.9,67.0,28.79,East,100,3.0,-999.0,88,-99.99,,,0.00,weatherlink.com 1.10,2013-04-10 02:03:00,
2013-04-09 21:18:00,70.8,67.0,28.30,East,101,2.0,-999.0,88,-99.99,,,0.00,weatherlink.com 1.10,2013-04-10 02:18:00,
2013-04-09 21:33:00,70.6,67.0,28.30,SE,136,5.0,-999.0,88,-99.99,,,0.00,weatherlink.com 1.10,2013-04-10 02:33:00,
2013-04-09 21:48:00,70.4,66.0,28.30,SE,135,2.0,-999.0,87,-99.99,,,0.00,weatherlink.com 1.10,2013-04-10 02:48:00,
2013-04-09 22:03:00,70.2,66.0,28.37,East,88,2.0,-999.0,87,-99.99,,,0.00,weatherlink.com 1.10,2013-04-10 03:03:00,
2013-04-09 22:18:00,70.1,66.0,28.46,East,98,0.0,-999.0,87,-99.99,,,0.00,weatherlink.com 1.10,2013-04-10 03:18:00,
2013-04-09 22:33:00,69.9,66.0,28.46,ESE,102,2.0,-999.0,87,-99.99,,,0.00,weatherlink.com 1.10,2013-04-10 03:33:00,
2013-04-09 22:48:00,69.7,66.0,29.53,East,98,0.0,-999.0,87,-99.99,,,0.00,weatherlink.com 1.10,2013-04-10 03:48:00,
2013-04-09 23:03:00,69.4,66.0,29.79,ESE,121,0.0,-999.0,88,-99.99,,,0.00,weatherlink.com 1.10,2013-04-10 04:03:00,
2013-04-09 23:18:00,69.1,66.0,30.12,ESE,123,1.0,-999.0,89,-99.99,,,0.00,weatherlink.com 1.10,2013-04-10 04:18:00,
2013-04-09 23:33:00,68.9,66.0,30.11,ESE,109,1.0,-999.0,89,-99.99,,,0.00,weatherlink.com 1.10,2013-04-10 04:33:00,
2013-04-09 23:48:00,68.6,65.0,30.11,East,100,0.0,-999.0,89,-99.99,,,0.00,weatherlink.com 1.10,2013-04-10 04:48:00,